Tracking 35334 objects as of 13-Sep-2026
HD Live streaming from Space Station
objects crossing your sky now

SPACEBEE-137


SPACEBEE-137 is no longer on orbit


NORAD ID: 52186
Int'l Code: 2022-033AF
Launch date: April 1, 2022
Source: United States (US)
Launch site: AIR FORCE EASTERN TEST RANGE (AFETR)
Decay date: 2023-10-17
Your satellite tracking list
Your tracking list is empty




NASA's NSSDC Master Catalog

Two Line Element Set (TLE):
1 52186U 22033AF  23288.91308605  .18493767  24838-5  35160-3 0  9990
2 52186  97.3076  17.8537 0011346 291.5367  68.4726 16.46657282 86379
Source of the keplerian elements: AFSPC